Forside
METAR-TAF:

METAR-TAF

Lufthavne :

Knoxville Municipal Airport

Knoxville, Iowa, USA

Breddekreds: 41-18N, længdekreds: 093-07W, højde: 283 m

Aktuelle vejr

Denne rapport blev lavet for 9 timer og 13 minutter siden, kl. 15:35 UTC
Vind 17 kt fra nordvest med vindstød på up til 22 kt
Temperatur 19°C
Fugtighed 46%
Tryk 1014 hPa
Sigt: 16.1 km
skyfri

METAR: KOXV 211535Z AUTO 32017G22KT 10SM CLR 19/07 A2994 RMK AO2

Tid: 19:48 (00:48 UTC)


TAF: fraværende

Vejrobservationer og prognoser fra mere end 4000 lufthavne (METAR og TAF).

De gule og røde prikker repræsenterer de meteorologiske stationer.

Flyt musen over at se navnet på stationen.

Så klik over at se vejr observationer og prognoser.

At skifte det kort: Klik på de grønne knapper med et sort kors for at zoome ind; på den grønne knap med en bindestreg for at zoome ud; eller på de grønne pile for tilstødende kort.


METAR-TAF: